[Iaude] MPEC F22: 2022 FG [a=2.23,e=0.68,i=20.9,H=21.5,PHA]

mpec at marsden.cfa.harvard.edu mpec at marsden.cfa.harvard.edu
Wed Mar 23 15:45:49 EDT 2022


M.P.E.C. 2022-F22                                Issued 2022 March 23, 19:37 UT

     The Minor Planet Electronic Circulars contain information on unusual
         minor planets and routine data on comets.  They are published
    on behalf of Division F of the International Astronomical Union by the
          Minor Planet Center, Smithsonian Astrophysical Observatory,
                          Cambridge, MA 02138, U.S.A.

             Prepared using the Tamkin Foundation Computer Network

                              MPC at CFA.HARVARD.EDU
            URL https://www.minorplanetcenter.net/    ISSN 1523-6714

                                    2022 FG                                     


Observations:
     K22F00G  C2022 02 23.51067811 14 59.944-04 09 34.94         22.73GVEF022F52
     K22F00G  C2022 02 23.52159711 14 59.206-04 09 20.88         22.16GVEF022F52
     K22F00G  C2022 02 23.53245911 14 58.488-04 09 07.59         22.96GVEF022F52
     K22F00G  C2022 03 03.39958911 05 11.895-00 48 35.35         21.51GVEF022F52
     K22F00G  C2022 03 03.41190311 05 10.718-00 48 12.45         22.13GVEF022F52
     K22F00G* C2022 03 22.30578610 27 04.017+12 57 11.02         21.29wUEF022F52
     K22F00G  C2022 03 22.31608610 27 02.383+12 57 45.98         21.62wUEF022F52
     K22F00G  C2022 03 22.33681310 26 59.083+12 58 56.81         21.07wUEF022F52
     K22F00G  C2022 03 22.42785110 26 44.527+13 04 05.78         21.15GVEF022F52
     K22F00G  C2022 03 22.42848110 26 44.409+13 04 07.91         21.32GVEF022F52
     K22F00G pC2022 03 22.85673710 25 39.65 +13 28 23.8          21.2 GVEF022L01
     K22F00G pC2022 03 22.85985510 25 39.25 +13 28 34.0          21.3 GVEF022L01
     K22F00G pC2022 03 22.86297410 25 38.72 +13 28 45.7          21.3 GVEF022L01
     K22F00G pC2022 03 22.86609310 25 38.17 +13 28 56.6          21.5 GVEF022L01
     K22F00G pC2022 03 22.86921210 25 37.68 +13 29 07.1          21.3 GVEF022L01
     K22F00G KC2022 03 22.92984 10 25 28.16 +13 32 34.0                VEF022204
     K22F00G KC2022 03 22.96367 10 25 22.78 +13 34 30.6          21.0 GVEF022204
     K22F00G KC2022 03 22.97856810 25 20.52 +13 35 22.4                XEF022I93
     K22F00G KC2022 03 22.99128010 25 18.49 +13 36 06.5          21.5 GXEF022I93
     K22F00G KC2022 03 23.00975510 25 15.54 +13 37 08.9          20.9 GXEF022I93
     K22F00G |C2022 03 23.02870 10 25 13.75 +13 38 38.2          21.2 GVEF022807
     K22F00G |C2022 03 23.03494 10 25 12.77 +13 38 59.4          20.6 GVEF022807
     K22F00G |C2022 03 23.04118 10 25 11.76 +13 39 21.3          20.8 GVEF022807
     K22F00G KC2022 03 23.13817610 24 56.92 +13 44 35.0          21.27GVEF022I52
     K22F00G KC2022 03 23.14023410 24 56.56 +13 44 42.3          21.15GVEF022I52
     K22F00G KC2022 03 23.14229210 24 56.24 +13 44 49.5          21.27GVEF022I52
     K22F00G !C2022 03 23.16009 10 24 53.52 +13 45 50.5          21.1 RVEF022673
     K22F00G !C2022 03 23.18140 10 24 50.09 +13 47 03.6                VEF022673

Observer details:
204 Schiaparelli Observatory.  Observer L. Buzzi.  0.84-m f/3.5 reflector +
    CCD.
673 Table Mountain Observatory, Wrightwood.  Observer J. Pittichova.  1.0-m
    f/15 reflector + CCD.
807 Cerro Tololo Observatory, La Serena.  Observers T. Linder, R. Holmes, L.
    Horn.  1.00-m f/10.0 astrograph + CCD.
F52 Pan-STARRS 2, Haleakala.  Observers J. Bulger, K. Chambers, T. Dukes, T.
    Lowe, A. Schultz, I. Smith.  Measurers S. Chastel, M. Huber, Y.
    Ramanjooloo, R. Wainscoat, R. Weryk, K. Chambers, T. de Boer, J. Fairlamb,
    H. Gao, C.-C. Lin, E. Magnier.  1.8-m Ritchey-Chretien + CCD.
I52 Steward Observatory, Mt. Lemmon Station.  Observer K. W. Wierzchos.
    Measurers E. J. Christensen, G. A. Farneth, J. B. Fazekas, D. C. Fuls, A.
    R. Gibbs, A. D. Grauer, H. Groeller, J. K. Hogan, R. A. Kowalski, S. M.
    Larson, G. J. Leonard, D. Rankin, R. L. Seaman, A. Serrano, F. C. Shelly,
    K. W. Wierzchos.
I93 St Pardon de Conques.  Observer F. Losse.  0.40-m f/3.7 reflector + CCD.
L01 Visnjan Observatory, Tican.  Observer K. Korlevic.  1.0-m f/2.9 reflector
    + CCD.

Orbital elements:
2022 FG                                             PHA, Earth MOID = 0.0116 AU
Epoch 2022 Jan. 21.0 TT = JDT 2459600.5                 Veres                   
M 318.09321              (2000.0)            P               Q                  
n   0.29539264     Peri.  104.52896     +0.09911699     +0.99335198             
a   2.2329017      Node   170.55758     -0.99359576     +0.10200590             
e   0.6794715      Incl.   20.90789     -0.05425215     -0.05335389             
P   3.34           H   21.58          G   0.15           U   7                  
Residuals in seconds of arc
220223 F52  0.2+  0.1-    220322 L01  0.7-  0.6+    220323 807  0.3-  0.1-
220223 F52  0.1-  0.3+    220322 L01  0.7+  0.1+    220323 807  0.0   0.5-
220223 F52  0.1-  0.0     220322 L01  0.2+  1.0+    220323 807  0.1-  0.1-
220303 F52  0.2+  0.2-    220322 L01  0.6-  1.2+    220323 I52  0.2+  0.1-
220303 F52  0.1-  0.3+    220322 L01  0.5-  1.0+    220323 I52  0.2-  0.1+
220322 F52  0.1-  0.2+    220322 204  0.6+  0.1-    220323 I52  0.0   0.2+
220322 F52  0.0   0.1+    220322 204 (0.9+  0.3+)   220323 673  0.4+  0.4+
220322 F52  0.2+  0.4+    220322 I93  0.5+  0.4+    220323 673  0.2+  0.4-
220322 F52  0.3+  0.1+    220322 I93  0.5+  0.9+
220322 F52  0.1+  0.1+    220323 I93  0.5+  0.1-

Ephemeris:
2022 FG                  a,e,i = 2.23, 0.68, 21                  q = 0.7157
Date    TT    R. A. (2000) Decl.     Delta      r    Elong.  Phase     V
2022 02 21    11 17 23.6 -04 58 36   0.7342  1.6923   158.1    12.6    22.8
...
2022 03 08    10 57 48.0 +01 45 46   0.5532  1.5444   175.0     3.2    21.6
...
2022 03 16    10 42 00.0 +07 25 53   0.4808  1.4629   164.1    10.7    21.5
...
2022 03 22    10 27 49.9 +12 39 57   0.4385  1.4007   152.8    18.9    21.5
2022 03 23    10 25 17.6 +13 36 44   0.4325  1.3903   150.9    20.4    21.5
2022 03 24    10 22 42.4 +14 34 38   0.4267  1.3798   148.9    21.9    21.5
...
2022 03 30    10 06 17.9 +20 41 51   0.3982  1.3167   136.6    31.4    21.5
...
2022 04 07    09 42 31.0 +29 21 08   0.3743  1.2317   120.1    44.7    21.6
...
2022 04 22    08 52 05.4 +45 10 07   0.3597  1.0725    90.9    69.6    22.0

M. P. C. Staff               (C) Copyright 2022 MPC           M.P.E.C. 2022-F22




More information about the Iaude mailing list